Regional Weather Roundup
Issued by NWS Boston, MA

Home | Current Version | Previous Version | Text Only | Print | Product List | Glossary On
Versions: 1 2 3 4 5 6 7 8 9 10 11 12 13 14 15 16 17 18 19 20 21 22 23 24 25 26 27 28
000
ASUS41 KBOX 250410
RWRBOX

REGIONAL WEATHER ROUNDUP
NATIONAL WEATHER SERVICE TAUNTON MA
1200 AM EDT SAT OCT 25 2014

NOTE:  "FAIR" INDICATES FEW OR NO CLOUDS BELOW 12,000 FEET WITH NO
SIGNIFICANT WEATHER AND/OR OBSTRUCTIONS TO VISIBILITY.  THE FOLLOWING
OBSERVATION LOCATIONS DO NOT REPORT PRESENT WEATHER...PROVINCETOWN...
SMITHFIELD...BLOCK ISLAND...KEENE...AND OXFORD.

MAZALL-250500-
EASTERN MASSACHUSETTS

CITY           SKY/WX    TMP DP  RH WIND       PRES   REMARKS
BOSTON         PTCLDY    47  41  80 NW10      29.74S
BEVERLY        CLOUDY    47  41  80 NW8       29.73S
LAWRENCE       PTCLDY    46  41  82 CALM      29.76R
BEDFORD        CLEAR     42  40  92 W6        29.74R
BLUE HILL        N/A     44  41  89 NW9       29.73R
NORWOOD        CLEAR     45  42  89 CALM      29.74S
MARSHFIELD     NOT AVBL
PLYMOUTH       CLEAR     47  43  86 NW5       29.74R
TAUNTON        PTCLDY    48  42  80 NW6       29.75R
NEW BEDFORD    MOCLDY    49  42  77 NW6       29.74R
$$

MAZALL-250500-
CAPE COD AND THE ISLANDS

CITY           SKY/WX    TMP DP  RH WIND       PRES   REMARKS
FALMOUTH       CLOUDY    48  43  81 NW6       29.74R
HYANNIS        MOCLDY    51  44  77 NW9       29.72R
CHATHAM        CLOUDY    50  44  80 NW8       29.72S
PROVINCETOWN   MOCLDY    50  -2  11 NW14      29.73R
NANTUCKET      CLOUDY    52  44  74 NW10      29.72F
MARTHAS VNYRD  CLOUDY    50  43  77 NW9       29.74S
$$

MAZALL-250500-
CENTRAL AND WESTERN MASSACHUSETTS

CITY           SKY/WX    TMP DP  RH WIND       PRES   REMARKS
WORCESTER      PTCLDY    46  40  79 NW13      29.75R
FITCHBURG      CLEAR     47  40  76 CALM      29.76S
ORANGE         CLEAR     47  40  76 N7        29.77S
SPRINGFIELD    CLEAR     47  42  81 N5        29.78S
WESTFIELD      CLEAR     51  42  71 N12       29.79R
NORTH ADAMS    PTCLDY    45  41  86 W5        29.84S
PITTSFIELD     CLEAR     43  41  93 W9        29.82S
$$

RIZALL-250500-
RHODE ISLAND

CITY           SKY/WX    TMP DP  RH WIND       PRES   REMARKS
PROVIDENCE     CLOUDY    50  42  74 NW7       29.77R
NEWPORT        CLOUDY    52  42  69 NW10      29.76R
BLOCK ISLAND   CLOUDY    52  41  66 NW12G20   29.77S
SMITHFIELD     CLOUDY    46  36  66 NW6       29.75R
WESTERLY       CLOUDY    50  43  77 CALM      29.79R
$$

CTZALL-250500-
CONNECTICUT

CITY           SKY/WX    TMP DP  RH WIND       PRES   REMARKS
BRADLEY INTL   PTCLDY    51  42  71 NW9       29.79R
HARTFORD       CLEAR     45  42  89 SE7       29.80R
BRIDGEPORT     CLEAR     50  44  80 W6        29.82R
DANBURY        CLEAR     49  41  74 CALM      29.84S
GROTON         MOCLDY    49  43  80 NW7       29.78S
NEW HAVEN      CLEAR     53  46  77 NW6       29.80S
CHESTER        NOT AVBL
MERIDEN        CLEAR     48  43  82 N6        29.80S
WILLIMANTIC    MOCLDY    50  42  74 NW5       29.78S
OXFORD         CLEAR     50  39  66 NW12      29.81S
$$

MEZ002-015-021-024-NHZ003-005-008-011-012-014-VTZ005-008-250500-
NORTHERN NEW ENGLAND

CITY           SKY/WX    TMP DP  RH WIND       PRES   REMARKS
PORTLAND ME    CLOUDY    51  42  71 NW8       29.71F
BANGOR ME      CLOUDY    44  42  93 NW9       29.67S
CONCORD NH     CLOUDY    47  41  80 NW5       29.75R
MANCHESTER NH  MOCLDY    48  40  73 N7        29.73S
NASHUA NH      CLEAR     46  42  86 CALM      29.75S
PORTSMOUTH NH  MOCLDY    46  42  86 W5        29.72S
JAFFREY NH     CLOUDY    47  39  74 VRB5      29.76S
KEENE NH       CLEAR     45  36  70 E5        29.79R
BURLINGTON VT  PTCLDY    41  38  89 CALM      29.82F
MT. WASHINGTON MOCLDY    28  25  86 N43G58      N/A  WCI  10
$$

NYZ052-076-250500-
EASTERN NEW YORK

CITY           SKY/WX    TMP DP  RH WIND       PRES   REMARKS
ALBANY         PTCLDY    44  42  93 CALM      29.86F
NEW YORK CITY  PTCLDY    58  41  53 NW10      29.83S
$$

ANZALL-250500-
MARINE OBSERVATIONS

STATION/POSITION TIME  TEMP    WIND        PRES    VSBY  WAVE
                       AIR SEA DIR/SP/G                  HT/PER
                 (UTC) (F)     (DEG/KT/KT) (MB)    (MI)  (FT/S)
BOSTON BUOY      NOT AVBL
BUZZARDS BAY     NOT AVBL
NANTUCKET SOUND  NOT AVBL
MASS BAY-STELLWA NOT AVBL
ISLE OF SHOALS   NOT AVBL
S OF BLOCK IS    NOT AVBL
$$

......................KEY.........................
  SKY/WX - SKY CONDITION/PRESENT WEATHER
  TMP    - TEMPERATURE IN FAHRENHEIT
  DWPT   - DEWPOINT IN FAHRENHEIT
  RH     - RELATIVE HUMIDITY IN PERCENT
  WIND   - DIRECTION AND SPEED IN MPH
  PRES   - MEAN SEA LEVEL PRESSURE IN INCHES OF HG
  WCI    - WIND CHILL INDEX
  VSB    - VISIBILITY IN MILES
  HX     - HEAT INDEX
  TC     - TEMPERATURE IN CELSIUS
  VRB    - VARIABLE WIND DIRECTION
  N/A    - NOT AVAILABLE



USA.gov is the U.S. government's official web portal to all federal, state and local government web resources and services.